[Date Prev][Date Next][Thread Prev][Thread Next] - [Date Index][Thread Index][Author Index]
2 Line ISS Keps 11-22
- Subject: [sarex] 2 Line ISS Keps 11-22
- From: "Dave Larsen PhD" <doc@xxxxxxxxxxx>
- Date: Mon, 21 Nov 2005 19:20:30 -0800
ISS
1 25544U 98067A 05325.83763889 .00009867 00000-0 77062-4 0 8015
2 25544 051.6426 172.9044 0008325 312.3918 232.4573 15.72376700400499
----
Via the sarex mailing list at AMSAT.ORG courtesy of AMSAT-NA.
To unsubscribe, send "unsubscribe sarex" to Majordomo@amsat.org
AMSAT Home